FLOCK 1C 4

导读

FLOCK 1C 4(编号2014-033X)是美国Planet公司鸽群(Flock)星座中的一颗Dove立方星,于2014年6月19日发射入轨。作为低成本商业遥感卫星,它承担全球高频次对地观测任务,服务农业、林业等领域。 该卫星采用无动力设计,不具备轨道机动能力,受大气阻力影响轨道高度持续缓慢下降。在已陨落的鸽群卫星中,它创造了极端长寿记录,发射11年后仍在438km轨道运行,是低成本小卫星长寿命运行的典型案例。

Basic Information
目录编号:
40031
目录名称:
FLOCK 1C 4
国际标识:
2014-033X
轨道中心:
EARTH
卫星名称:
FLOCK 1C 4
卫星全名:
--
卫星状态:
已陨落 最后检测时间 2025-11-25
发射日期:
2014-06-19 UTC
国别 :
美国 (US)
星等 :
--
Orbit Information
数据来源 国际轨道数据
星历时间: 2025-11-25T05:57:37+0800
轨道信息已过期245天
半长轴: 6542.055km
偏心率: 0.000922
轨道倾角: 98.051°
近地点辐角 238.716°
升交点赤经 359.799°
平近点角 121.323°
近地点: 157.888km
远地点: 169.952km
周期: 87.767分钟
每日圈数: 16.407089
Detailed Information
使用方式:
暂无